Location: Unspecified
(0.0000°N, 0.0000°E)
Time: 10:34:13
(UTC+00:00)

Hubble Space Telescope - Visible Passes

Search period start: 22 April 2018 00:00
Search period end: 02 May 2018 00:00
Orbit: 537 x 541 km, 28.5° (Epoch: 21 April)

Date Brightness Start Highest point End Pass type
(mag) Time Alt. Az. Time Alt. Az. Time Alt. Az.
22 Apr 3.7 04:14:22 10° NNE 04:15:16 11° NNE 04:16:10 10° NE visible
22 Apr 3.2 19:29:46 10° WNW 19:32:39 18° NNW 19:35:15 11° NNE visible
23 Apr 3.4 04:03:42 13° N 04:05:02 15° NNE 04:07:22 10° ENE visible
23 Apr 3.5 19:20:22 10° WNW 19:22:24 13° NNW 19:24:26 10° N visible
24 Apr 3.1 03:54:50 20° NNE 03:54:50 20° NNE 03:57:50 10° ENE visible
24 Apr 0.8 05:31:52 10° WNW 05:35:59 64° SSW 05:40:04 10° SE visible
25 Apr 3.2 03:46:01 21° ENE 03:46:01 21° ENE 03:48:02 10° E visible
25 Apr 1.2 05:21:43 10° WNW 05:25:40 44° SSW 05:29:38 10° SE visible
26 Apr 3.6 03:37:12 15° E 03:37:12 15° E 03:38:04 10° E visible
26 Apr 1.7 05:12:36 15° W 05:15:22 31° SSW 05:19:04 10° SSE visible
27 Apr 2.1 05:03:44 19° WSW 05:05:05 23° SSW 05:08:23 10° SSE visible
28 Apr 2.5 04:54:48 17° SSW 04:54:50 17° SSW 04:57:31 10° SSE visible
29 Apr 3.1 04:45:44 11° S 04:45:44 11° S 04:46:18 10° S visible
